Location: Bli��� Lhota
(48.7570°N, 14.0120°E)
Time: 07:52:28
(UTC+00:00)

ARIANE 5 R/B - Pass Details

Date: 18 September 2020
Orbit: 620 x 657 km, 98.2° (Epoch: 23 October)

Event Time Altitude Azimuth Distance (km) Brightness Sun altitude
Exits shadow 19:37:43 54° 39° (NE) 765 2.9 -23.9°
Drops below altitude 10° 19:41:28 10° 353° (N) 2,003 5.7 -24.4°
Sets 19:43:41 0° 350° (N) 2,912 6.7 -24.7°
